This is the latest recevied weather packets stored in our database for station/object JE9BHE-13. If no packets are shown the sender has not sent any weather packets the latest 10 day(s).
| Time | Temp. | Humidity | Pressure | Rain* | Wind** | Luminosity | Snow |
|---|---|---|---|---|---|---|---|
| 1777393086 | 16.11° C | 72% | 1015.5 hPa | 0 mm | - | - | - |
| 1777392727 | 16.67° C | 62% | 1015.6 hPa | 0 mm | - | - | - |
| 1777392547 | 16.67° C | 62% | 1015.6 hPa | 0 mm | - | - | - |
| 1777391466 | 16.67° C | 69% | 1015.7 hPa | 0 mm | - | - | - |
| 1777390746 | 16.67° C | 72% | 1015.7 hPa | 0 mm | - | - | - |
| 1777390387 | 16.67° C | 71% | 1015.7 hPa | 0 mm | - | - | - |
| 1777388946 | 15.56° C | 84% | 1015.5 hPa | 0 mm | - | - | - |
| 1777388766 | 15.56° C | 86% | 1015.7 hPa | 0 mm | - | - | - |
| 1777387146 | 16.11° C | 86% | 1016 hPa | 0 mm | - | - | - |
| 1777386426 | 16.11° C | 85% | 1015.5 hPa | 0 mm | - | - | - |
| 1777384987 | 16.11° C | 87% | 1015.4 hPa | 0 mm | - | - | - |
| 1777383546 | 16.11° C | 85% | 1015.3 hPa | 0 mm | - | - | - |
| 1777383006 | 16.11° C | 84% | 1015.1 hPa | 0 mm | - | - | - |
| 1777381746 | 16.67° C | 81% | 1015.3 hPa | 0 mm | - | - | - |
| 1777381386 | 16.67° C | 81% | 1015.4 hPa | 0 mm | - | - | - |
| 1777378326 | 16.67° C | 78% | 1015.2 hPa | 0 mm | - | - | - |
| 1777377427 | 16.67° C | 79% | 1015 hPa | 0 mm | - | - | - |
| 1777375266 | 16.67° C | 78% | 1014.9 hPa | 0 mm | - | - | - |
| 1777373646 | 17.22° C | 75% | 1014.3 hPa | 0 mm | - | - | - |
| 1777371666 | 17.78° C | 73% | 1013.5 hPa | 0 mm | - | - | - |
| 1777371126 | 17.78° C | 74% | 1013.2 hPa | 0 mm | - | - | - |
| 1777370226 | 17.78° C | 72% | 1013.3 hPa | 0 mm | - | - | - |
| 1777369866 | 17.78° C | 72% | 1013.3 hPa | 0 mm | - | - | - |
| 1777368246 | 18.33° C | 71% | 1012.9 hPa | 0 mm | - | - | - |
| 1777368066 | 18.33° C | 70% | 1012.7 hPa | 0 mm | - | - | - |
* Rain latest hour (hover to see other rain measurements)
** Current wind speed in m/s (hover to see current wind gust speed)